This demonstration page uses our WeatherBlox Daily Observations layout. Learn more.

Hourly Observations for June 17, 2020

Temp ( °F °C ) Dew Point ( °F °C ) Humidity (%) Winds ( mph kmh ) Pressure ( in mb ) Visibility ( mi km ) Precip ( " mm )
12:15 am 00:15 Cloudy 66 19 52 11 60 60 NE 6 9 30.26 1025 10 16.0934 0 0
12:35 am 00:35 Cloudy 66 19 52 11 60 60 ENE 6 9 30.26 1025 10 16.0934 0 0
12:55 am 00:55 Cloudy 66 19 52 11 60 60 ENE 6 9 30.25 1024 10 16.0934 0 0
1:15 am 01:15 Mostly Cloudy 64 18 52 11 64 64 NE 3 6 30.25 1025 10 16.0934 0 0
1:35 am 01:35 Cloudy 64 18 52 11 64 64 NNE 5 7 30.24 1024 10 16.0934 0 0
1:55 am 01:55 Cloudy 64 18 54 12 68 68 NE 6 9 30.22 1024 10 16.0934 0 0
2:15 am 02:15 Cloudy 64 18 54 12 68 68 NE 7 11 30.22 1024 10 16.0934 0 0
2:35 am 02:35 Cloudy 63 17 54 12 73 73 NNE 7 11 30.23 1024 10 16.0934 0 0
2:55 am 02:55 Mostly Cloudy 63 17 54 12 73 73 NNE 9 15 30.23 1024 10 16.0934 0 0
3:15 am 03:15 Partly Cloudy 63 17 54 12 73 73 NNE 8 13 30.22 1023 10 16.0934 0 0
3:35 am 03:35 Cloudy 63 17 54 12 73 73 NNE 9 15 30.21 1023 10 16.0934 0 0
3:55 am 03:55 Cloudy 63 17 54 12 73 73 NNE 10 17 30.2 1023 10 16.0934 0 0
4:15 am 04:15 Mostly Cloudy 61 16 55 13 83 83 NNE 9 15 30.19 1022 10 16.0934 0 0
4:35 am 04:35 Cloudy 61 16 55 13 83 83 NNE 6 9 30.2 1023 10 16.0934 0 0
4:55 am 04:55 Cloudy 61 16 55 13 83 83 NE 5 7 30.21 1023 10 16.0934 0 0
5:15 am 05:15 Cloudy 61 16 55 13 83 83 NNE 5 7 30.21 1023 10 16.0934 0 0
5:35 am 05:35 Cloudy 61 16 55 13 83 83 NNE 6 9 30.21 1023 10 16.0934 0 0
5:55 am 05:55 Mostly Cloudy 61 16 55 13 83 83 NNE 7 11 30.21 1023 10 16.0934 0 0
6:15 am 06:15 Mostly Cloudy 61 16 55 13 83 83 NE 7 11 30.23 1024 10 16.0934 0 0
6:35 am 06:35 Cloudy 61 16 55 13 83 83 NNE 5 7 30.22 1023 10 16.0934 0 0
6:55 am 06:55 Cloudy 61 16 55 13 83 83 NNE 5 7 30.23 1024 10 16.0934 0 0
7:15 am 07:15 Cloudy 61 16 55 13 83 83 NNE 6 9 30.22 1023 10 16.0934 0 0
7:35 am 07:35 Cloudy 61 16 55 13 83 83 NNE 8 13 30.22 1023 10 16.0934 0 0
7:55 am 07:55 Cloudy 61 16 55 13 83 83 NNE 7 11 30.22 1023 10 16.0934 0 0
8:15 am 08:15 Cloudy 61 16 55 13 83 83 NE 8 13 30.23 1024 10 16.0934 0 0
8:35 am 08:35 Cloudy 63 17 55 13 77 77 NE 8 13 30.23 1024 10 16.0934 0 0
8:55 am 08:55 Cloudy 63 17 55 13 77 77 NE 10 17 30.23 1024 10 16.0934 0 0
9:15 am 09:15 Cloudy 63 17 55 13 77 77 NNE 8 13 30.23 1024 10 16.0934 0 0
9:35 am 09:35 Cloudy 63 17 57 14 83 83 NE 7 11 30.23 1024 10 16.0934 0 0
9:55 am 09:55 Cloudy 64 18 59 15 83 83 NE 9 15 30.21 1023 10 16.0934 0 0
10:15 am 10:15 Cloudy 64 18 59 15 83 83 NNE 8 13 30.21 1023 10 16.0934 0 0
10:35 am 10:35 Cloudy 66 19 59 15 78 78 NE 13 20 30.21 1023 10 16.0934 0 0
10:55 am 10:55 Cloudy 68 20 59 15 73 73 NE 12 19 30.22 1023 10 16.0934 0 0
11:15 am 11:15 Cloudy 68 20 61 16 78 78 NNE 8 13 30.21 1023 10 16.0934 0 0
11:35 am 11:35 Cloudy 68 20 61 16 78 78 NNE 7 11 30.21 1023 10 16.0934 0 0
11:55 am 11:55 Cloudy 68 20 61 16 78 78 NNE 10 17 30.21 1023 10 16.0934 0 0
12:15 pm 12:15 Cloudy 68 20 61 16 78 78 NNE 8 13 30.21 1023 10 16.0934 0 0
12:35 pm 12:35 Cloudy 70 21 63 17 78 78 NNE 8 13 30.2 1023 10 16.0934 0 0
12:55 pm 12:55 Cloudy 70 21 63 17 78 78 NNE 8 13 30.19 1022 10 16.0934 0 0
1:15 pm 13:15 Cloudy 70 21 63 17 78 78 NE 8 13 30.19 1022 10 16.0934 0 0
1:35 pm 13:35 Cloudy 72 22 63 17 73 73 NE 13 20 30.18 1022 10 16.0934 0 0
1:55 pm 13:55 Cloudy 72 22 63 17 73 73 NE 14 22 30.18 1022 10 16.0934 0 0
2:15 pm 14:15 Cloudy 72 22 63 17 73 73 NE 10 17 30.17 1022 10 16.0934 0 0
2:35 pm 14:35 Cloudy 72 22 63 17 73 73 NE 10 17 30.17 1022 10 16.0934 0 0
2:55 pm 14:55 Cloudy 72 22 63 17 73 73 ENE 7 11 30.17 1022 10 16.0934 0 0
3:15 pm 15:15 Cloudy 72 22 64 18 78 78 NE 8 13 30.16 1021 10 16.0934 0 0
3:35 pm 15:35 Cloudy 72 22 64 18 78 78 ENE 10 17 30.15 1021 10 16.0934 0 0
3:55 pm 15:55 Cloudy 72 22 63 17 73 73 ENE 10 17 30.15 1021 10 16.0934 0 0
4:15 pm 16:15 Cloudy 72 22 64 18 78 78 ENE 14 22 30.16 1021 10 16.0934 0 0
4:35 pm 16:35 Cloudy with Nearby Thunderstorms 70 21 64 18 83 83 NE 9 15 30.16 1021 10 16.0934 0 0
4:55 pm 16:55 Cloudy 68 20 64 18 88 88 NE 10 17 30.15 1021 5 8.0467 0.03 0.762
5:15 pm 17:15 Cloudy 68 20 64 18 88 88 NE 10 17 30.14 1021 10 16.0934 0.01 0.254
5:35 pm 17:35 Cloudy with Nearby Thunderstorms 68 20 64 18 88 88 NE 9 15 30.13 1020 7 11.26538 0.04 1.016
5:55 pm 17:55 Cloudy 66 19 64 18 94 94 NE 6 9 30.14 1021 5 8.0467 0.07 1.778
6:15 pm 18:15 Cloudy 64 18 64 18 100 100 NE 8 13 30.14 1021 2.5 4.02335 0.07 1.778
6:35 pm 18:35 Cloudy 64 18 64 18 100 100 NE 6 9 30.13 1020 2.5 4.02335 0.17 4.318
6:55 pm 18:55 Cloudy with Nearby Thunderstorms 64 18 64 18 100 100 NE 8 13 30.13 1020 3 4.82802 0.22 5.588
7:15 pm 19:15 Cloudy 63 17 63 17 100 100 NE 7 11 30.14 1021 3 4.82802 0.06 1.524
7:35 pm 19:35 Cloudy 63 17 63 17 100 100 NE 8 13 30.14 1021 10 16.0934 0.06 1.524
7:55 pm 19:55 Cloudy 63 17 63 17 100 100 NE 5 7 30.14 1021 10 16.0934 0.07 1.778
8:15 pm 20:15 Cloudy 63 17 63 17 100 100 NE 5 7 30.13 1020 10 16.0934 0 0
8:35 pm 20:35 Cloudy 63 17 63 17 100 100 NE 6 9 30.14 1021 3 4.82802 0.11 2.794
8:55 pm 20:55 Cloudy 63 17 63 17 100 100 NE 5 7 30.13 1020 5 8.0467 0.17 4.318
9:15 pm 21:15 Cloudy 63 17 63 17 100 100 NE 6 9 30.13 1020 5 8.0467 0.01 0.254
9:35 pm 21:35 Cloudy 61 16 61 16 100 100 NE 8 13 30.13 1020 7 11.26538 0.03 0.762
9:55 pm 21:55 Cloudy 61 16 61 16 100 100 ENE 7 11 30.13 1020 10 16.0934 0.03 0.762
10:15 pm 22:15 Cloudy 61 16 61 16 100 100 NE 7 11 30.13 1020 10 16.0934 0 0
10:35 pm 22:35 Cloudy 61 16 61 16 100 100 NE 7 11 30.13 1020 10 16.0934 0 0
10:55 pm 22:55 Cloudy 61 16 61 16 100 100 NE 7 11 30.13 1020 7 11.26538 0.01 0.254
11:35 pm 23:35 Cloudy 61 16 61 16 100 100 ENE 9 15 30.12 1020 7 11.26538 0.02 0.508
11:55 pm 23:55 Cloudy 61 16 61 16 100 100 ENE 7 11 30.12 1020 5 8.0467 0.03 0.762

Powered by AerisWeather